WB6ANP Weather Reports


time (UTC)temp
C
wind
direction
speed
KPH
gust
KPH
rain 1hr
cm
rain 24hr
cm
rain mn
cm
humidity
%
barometer
mb
20260506070559 13 41 6.4 6.4 0.00 0.00 0.00 83 1010.1
20260506062034 14 76 11.3 14.5 0.00 0.00 0.00 80 1009.4
20260506061529 14 85 14.5 16.1 0.00 0.00 0.00 80 1009.3
20260506061027 15 68 17.7 19.3 0.00 0.00 0.00 80 1009.7
20260506060525 15 74 6.4 16.1 0.00 0.00 0.00 80 1009.8
20260506050954 15 56 4.8 12.9 0.00 0.00 0.00 78 1009.9
20260506050452 15 59 3.2 12.9 0.00 0.00 0.00 78 1009.8
20260506044942 15 64 9.7 11.3 0.00 0.00 0.00 77 1010.0
20260506044441 15 52 1.6 14.5 0.00 0.00 0.00 76 1009.9
20260506043937 15 23 12.9 16.1 0.00 0.00 0.00 76 1009.8
20260506043434 15 54 6.4 11.3 0.00 0.00 0.00 77 1009.8
20260506042932 15 32 8.0 8.0 0.00 0.00 0.00 77 1009.8
20260506042431 15 88 0.0 12.9 0.00 0.00 0.00 76 1009.9
20260506041929 15 61 8.0 14.5 0.00 0.00 0.00 76 1009.9
20260506041426 15 67 4.8 9.7 0.00 0.00 0.00 76 1009.9
20260506040923 16 36 12.9 14.5 0.00 0.00 0.00 76 1009.6
20260506040421 16 55 4.8 9.7 0.00 0.00 0.00 76 1009.8
20260506035917 16 346 14.5 17.7 0.00 0.00 0.00 75 1010.0
20260506035414 16 91 8.0 19.3 0.00 0.00 0.00 75 1009.8
20260506034911 16 56 4.8 14.5 0.00 0.00 0.00 74 1009.6
20260506034408 16 28 9.7 11.3 0.00 0.00 0.00 74 1009.8
20260506033905 16 22 9.7 11.3 0.00 0.00 0.00 74 1010.0
20260506033403 16 359 14.5 19.3 0.00 0.00 0.00 74 1009.8
20260506032859 16 51 8.0 12.9 0.00 0.00 0.00 74 1009.7
20260506032356 16 30 6.4 14.5 0.00 0.00 0.00 74 1009.6
20260506031853 17 340 6.4 12.9 0.00 0.00 0.00 74 1009.3
20260506031350 17 21 6.4 12.9 0.00 0.00 0.00 73 1009.3
20260506030848 17 3 11.3 14.5 0.00 0.00 0.00 73 1008.9
20260506030346 17 34 8.0 17.7 0.00 0.00 0.00 73 1008.9
20260506025842 17 28 8.0 16.1 0.00 0.00 0.00 73 1008.7
20260506025338 17 6 9.7 19.3 0.00 0.00 0.00 73 1008.8
20260506024836 17 58 6.4 20.9 0.00 0.00 0.00 73 1008.6
20260506024333 17 25 8.0 11.3 0.00 0.00 0.00 73 1008.6
20260506023829 17 16 3.2 17.7 0.00 0.00 0.00 73 1008.7
20260506023326 17 56 8.0 9.7 0.00 0.00 0.00 73 1008.3
20260506022822 17 82 9.7 17.7 0.00 0.00 0.00 72 1007.8
20260506022320 18 78 8.0 14.5 0.00 0.00 0.00 72 1007.7
20260506021818 18 79 8.0 17.7 0.00 0.00 0.00 72 1007.7
20260506021315 18 75 6.4 12.9 0.00 0.00 0.00 72 1007.8
20260506020811 18 17 8.0 9.7 0.00 0.00 0.00 72 1007.7
20260506020309 18 60 4.8 9.7 0.00 0.00 0.00 72 1007.7
20260506015807 18 61 4.8 9.7 0.00 0.00 0.00 71 1007.4
20260506015306 18 37 6.4 11.3 0.00 0.00 0.00 71 1007.4
20260506014801 18 27 3.2 11.3 0.00 0.00 0.00 70 1007.8
20260506014257 18 22 8.0 16.1 0.00 0.00 0.00 70 1007.5
20260506013754 18 35 8.0 14.5 0.00 0.00 0.00 70 1007.3
20260506013251 19 20 9.7 9.7 0.00 0.00 0.00 69 1007.1
20260506012748 19 30 8.0 11.3 0.00 0.00 0.00 69 1006.8
20260506012245 19 46 8.0 11.3 0.00 0.00 0.00 68 1006.9
20260506011742 20 59 6.4 11.3 0.00 0.00 0.00 69 1007.0
20260506011238 20 18 8.0 14.5 0.00 0.00 0.00 68 1007.0
20260506010737 20 35 4.8 9.7 0.00 0.00 0.00 68 1006.8
20260506010234 20 41 6.4 22.5 0.00 0.00 0.00 68 1006.3
20260506005731 20 80 6.4 9.7 0.00 0.00 0.00 68 1006.0
20260506005228 20 77 3.2 17.7 0.00 0.00 0.00 67 1005.8
20260506004723 20 335 9.7 20.9 0.00 0.00 0.00 67 1006.0
20260506004221 21 24 8.0 17.7 0.00 0.00 0.00 66 1005.8
20260506003717 21 13 14.5 16.1 0.00 0.00 0.00 66 1005.7
20260506003214 21 34 14.5 16.1 0.00 0.00 0.00 66 1006.1
20260506002710 21 22 12.9 19.3 0.00 0.00 0.00 65 1006.0
20260506002206 21 62 4.8 9.7 0.00 0.00 0.00 65 1005.6
20260506001702 21 3 4.8 12.9 0.00 0.00 0.00 64 1005.5
20260506001159 21 10 8.0 17.7 0.00 0.00 0.00 63 1005.5
20260506000656 21 43 3.2 19.3 0.00 0.00 0.00 63 1005.6
20260506000154 22 113 3.2 17.7 0.00 0.00 0.00 63 1005.9
20260505235651 22 54 6.4 14.5 0.00 0.00 0.00 62 1005.8
20260505235149 22 11 9.7 16.1 0.00 0.00 0.00 62 1005.7
20260505234645 22 22 6.4 12.9 0.00 0.00 0.00 62 1005.7
20260505234142 22 9 6.4 16.1 0.00 0.00 0.00 61 1005.7
20260505233639 23 107 8.0 12.9 0.00 0.00 0.00 61 1005.4
20260505233137 23 83 3.2 9.7 0.00 0.00 0.00 62 1005.5
20260505232634 23 1 4.8 9.7 0.00 0.00 0.00 61 1005.6
20260505232132 23 18 8.0 29.0 0.00 0.00 0.00 60 1005.3
20260505231628 24 29 16.1 20.9 0.00 0.00 0.00 59 1005.4
20260505231127 24 38 9.7 22.5 0.00 0.00 0.00 58 1005.3
20260505230625 25 350 11.3 16.1 0.00 0.00 0.00 58 1005.5
20260505230121 25 32 11.3 17.7 0.00 0.00 0.00 57 1005.4
20260505225617 25 21 9.7 14.5 0.00 0.00 0.00 56 1004.9
20260505225114 26 353 6.4 14.5 0.00 0.00 0.00 55 1004.9
20260505224610 26 355 6.4 17.7 0.00 0.00 0.00 53 1005.0
20260505224108 27 115 6.4 20.9 0.00 0.00 0.00 52 1005.1
20260505223605 27 357 3.2 20.9 0.00 0.00 0.00 53 1005.1
20260505223101 27 322 9.7 14.5 0.00 0.00 0.00 53 1004.8
20260505222558 27 26 3.2 17.7 0.00 0.00 0.00 53 1004.6
20260505222054 28 2 12.9 14.5 0.00 0.00 0.00 53 1004.5
20260505221551 28 338 11.3 19.3 0.00 0.00 0.00 51 1004.6
20260505221047 28 68 6.4 17.7 0.00 0.00 0.00 51 1004.7
20260505220545 28 18 4.8 14.5 0.00 0.00 0.00 51 1004.4
20260505220043 28 25 3.2 14.5 0.00 0.00 0.00 49 1004.4
20260505215541 29 8 9.7 17.7 0.00 0.00 0.00 48 1004.4
20260505215038 30 312 12.9 14.5 0.00 0.00 0.00 44 1004.6
20260505214536 30 334 4.8 19.3 0.00 0.00 0.00 42 1004.6
20260505214032 31 20 4.8 8.0 0.00 0.00 0.00 41 1004.5
20260505213530 31 37 3.2 11.3 0.00 0.00 0.00 40 1004.3
20260505213026 31 302 9.7 12.9 0.00 0.00 0.00 39 1004.6
20260505212523 31 326 9.7 14.5 0.00 0.00 0.00 38 1004.7
20260505212020 31 113 1.6 8.0 0.00 0.00 0.00 40 1004.6
20260505211517 31 18 9.7 9.7 0.00 0.00 0.00 38 1004.7
20260505211014 31 36 11.3 16.1 0.00 0.00 0.00 38 1004.5
20260505210511 31 325 3.2 9.7 0.00 0.00 0.00 41 1004.8
20260505210008 31 341 3.2 11.3 0.00 0.00 0.00 40 1004.6
20260505205506 31 70 3.2 12.9 0.00 0.00 0.00 42 1004.3
20260505205003 31 338 20.9 22.5 0.00 0.00 0.00 41 1004.7
20260505204500 31 278 6.4 14.5 0.00 0.00 0.00 44 1004.4
20260505203957 31 304 6.4 17.7 0.00 0.00 0.00 42 1004.6
20260505203454 31 278 12.9 19.3 0.00 0.00 0.00 42 1004.8
20260505202950 31 238 12.9 17.7 0.00 0.00 0.00 43 1005.0
20260505202447 31 279 12.9 19.3 0.00 0.00 0.00 44 1005.0
20260505201943 31 276 9.7 16.1 0.00 0.00 0.00 44 1005.0
20260505201440 31 273 9.7 16.1 0.00 0.00 0.00 43 1005.0
20260505200938 30 267 12.9 19.3 0.00 0.00 0.00 43 1005.1
20260505200435 30 277 14.5 20.9 0.00 0.00 0.00 42 1005.0
20260505195930 31 271 8.0 17.7 0.00 0.00 0.00 46 1004.9
20260505195428 31 233 11.3 20.9 0.00 0.00 0.00 46 1005.3
20260505194925 31 239 17.7 22.5 0.00 0.00 0.00 46 1005.4
20260505194423 30 283 9.7 16.1 0.00 0.00 0.00 47 1005.4
20260505193922 30 228 11.3 24.1 0.00 0.00 0.00 47 1005.4
20260505193420 30 223 17.7 19.3 0.00 0.00 0.00 50 1005.4
20260505192918 30 276 8.0 16.1 0.00 0.00 0.00 51 1005.4
20260505192416 30 250 9.7 20.9 0.00 0.00 0.00 49 1005.4
20260505191913 30 252 9.7 25.7 0.00 0.00 0.00 51 1005.4
20260505191412 30 212 14.5 25.7 0.00 0.00 0.00 52 1005.3
20260505190908 30 256 14.5 20.9 0.00 0.00 0.00 51 1005.5
20260505190404 30 203 8.0 20.9 0.00 0.00 0.00 53 1005.0
20260505185859 30 268 8.0 25.7 0.00 0.00 0.00 53 1005.1
20260505185356 30 240 17.7 19.3 0.00 0.00 0.00 53 1005.3
20260505184852 29 239 9.7 27.4 0.00 0.00 0.00 55 1005.3
20260505184349 30 226 8.0 24.1 0.00 0.00 0.00 56 1005.1
20260505183846 29 195 4.8 27.4 0.00 0.00 0.00 56 1004.9
20260505183343 29 235 17.7 20.9 0.00 0.00 0.00 55 1005.3
20260505182840 28 226 6.4 17.7 0.00 0.00 0.00 57 1005.3
20260505182337 28 239 12.9 20.9 0.00 0.00 0.00 56 1005.3
20260505181833 28 227 14.5 22.5 0.00 0.00 0.00 59 1005.1
20260505181331 28 237 8.0 19.3 0.00 0.00 0.00 59 1005.4
20260505180827 28 230 12.9 22.5 0.00 0.00 0.00 59 1005.4
20260505180324 28 229 9.7 22.5 0.00 0.00 0.00 60 1005.4
20260505175820 27 231 12.9 27.4 0.00 0.00 0.00 59 1005.4
20260505175317 28 231 16.1 24.1 0.00 0.00 0.00 59 1005.4
20260505174813 28 233 11.3 25.7 0.00 0.00 0.00 61 1005.5
20260505174311 28 223 8.0 20.9 0.00 0.00 0.00 60 1005.7
20260505173806 28 219 17.7 20.9 0.00 0.00 0.00 61 1005.7
20260505173303 27 228 16.1 24.1 0.00 0.00 0.00 63 1005.3
20260505172800 27 226 22.5 27.4 0.00 0.00 0.00 61 1005.3
20260505172257 27 215 22.5 24.1 0.00 0.00 0.00 62 1005.3
20260505171752 27 197 9.7 20.9 0.00 0.00 0.00 63 1005.3
20260505171249 27 236 24.1 25.7 0.00 0.00 0.00 62 1005.4
20260505170746 27 235 19.3 27.4 0.00 0.00 0.00 62 1005.6
20260505170243 27 227 17.7 20.9 0.00 0.00 0.00 63 1005.5
20260505165738 27 228 16.1 19.3 0.00 0.00 0.00 61 1005.3
20260505165234 27 238 17.7 19.3 0.00 0.00 0.00 63 1005.3
20260505164730 27 207 11.3 30.6 0.00 0.00 0.00 65 1005.4
20260505164227 27 222 19.3 27.4 0.00 0.00 0.00 63 1005.5
20260505163725 27 232 24.1 29.0 0.00 0.00 0.00 62 1005.4
20260505163224 27 227 12.9 27.4 0.00 0.00 0.00 63 1005.5
20260505162721 27 229 8.0 40.2 0.00 0.00 0.00 61 1005.0
20260505162218 27 246 20.9 25.7 0.00 0.00 0.00 62 1005.0
20260505161715 27 185 17.7 19.3 0.00 0.00 0.00 63 1005.0
20260505161212 26 230 11.3 32.2 0.00 0.00 0.00 65 1004.8
20260505160710 27 224 12.9 20.9 0.00 0.00 0.00 64 1004.8
20260505160207 26 204 20.9 30.6 0.00 0.00 0.00 64 1004.9
20260505153146 25 224 17.7 27.4 0.00 0.00 0.00 72 1004.9
20260505152643 24 215 6.4 25.7 0.00 0.00 0.00 74 1004.9
20260505152138 24 229 9.7 27.4 0.00 0.00 0.00 73 1004.7
20260505151634 24 219 12.9 25.7 0.00 0.00 0.00 73 1004.9
20260505151132 25 219 8.0 24.1 0.00 0.00 0.00 73 1004.9
20260505150628 23 230 12.9 17.7 0.00 0.00 0.00 75 1004.8
20260505150125 23 234 4.8 14.5 0.00 0.00 0.00 75 1004.8
20260505140553 21 224 4.8 16.1 0.00 0.00 0.00 83 1004.9
20260505125007 20 201 8.0 17.7 0.00 0.00 0.00 87 1004.4
20260505124503 20 204 12.9 12.9 0.00 0.00 0.00 88 1004.4
20260505124000 20 176 6.4 11.3 0.00 0.00 0.00 88 1004.4
20260505123456 20 181 6.4 12.9 0.00 0.00 0.00 88 1004.4
20260505122952 19 203 6.4 14.5 0.00 0.00 0.00 88 1004.2
20260505122450 19 203 3.2 12.9 0.00 0.00 0.00 88 1004.1
20260505121946 19 172 6.4 9.7 0.00 0.00 0.00 88 1004.0
20260505121443 19 181 3.2 8.0 0.00 0.00 0.00 88 1004.0
20260505120939 19 203 4.8 14.5 0.00 0.00 0.00 88 1004.0
20260505120436 19 201 8.0 9.7 0.00 0.00 0.00 88 1003.9
20260505115935 19 205 3.2 9.7 0.00 0.00 0.00 88 1003.8
20260505115432 19 201 6.4 16.1 0.00 0.00 0.00 88 1004.0
20260505114930 19 189 4.8 8.0 0.00 0.00 0.00 88 1004.0
20260505114425 19 207 8.0 9.7 0.00 0.00 0.00 88 1003.7
20260505113922 19 219 9.7 11.3 0.00 0.00 0.00 88 1003.8
20260505113419 19 189 8.0 9.7 0.00 0.00 0.00 87 1003.8
20260505112914 19 207 3.2 9.7 0.00 0.00 0.00 87 1003.9
20260505112413 19 201 11.3 14.5 0.00 0.00 0.00 87 1004.0
20260505111909 19 241 3.2 9.7 0.00 0.00 0.00 87 1003.6
20260505111409 19 200 8.0 9.7 0.00 0.00 0.00 87 1003.8
20260505110905 19 212 8.0 12.9 0.00 0.00 0.00 87 1003.7
20260505110402 19 166 6.4 14.5 0.00 0.00 0.00 87 1003.7
20260505101833 20 209 12.9 14.5 0.00 0.00 0.00 85 1003.6
20260505101328 20 221 3.2 14.5 0.00 0.00 0.00 84 1003.4
20260505100824 20 157 6.4 16.1 0.00 0.00 0.00 84 1003.6
20260505100321 20 193 6.4 16.1 0.00 0.00 0.00 84 1003.7
20260505095816 20 201 9.7 14.5 0.00 0.00 0.00 84 1003.7
20260505095314 20 186 9.7 19.3 0.00 0.00 0.00 83 1003.8
20260505094810 20 197 4.8 16.1 0.00 0.00 0.00 83 1003.7
20260505094307 20 209 12.9 17.7 0.00 0.00 0.00 83 1003.5
20260505093802 20 209 9.7 12.9 0.00 0.00 0.00 83 1003.9
20260505093301 20 199 12.9 16.1 0.00 0.00 0.00 82 1004.0
20260505092757 20 199 8.0 14.5 0.00 0.00 0.00 82 1003.7
20260505092255 20 235 4.8 17.7 0.00 0.00 0.00 82 1003.7
20260505091753 20 166 6.4 16.1 0.00 0.00 0.00 82 1003.8
20260505091250 20 217 8.0 12.9 0.00 0.00 0.00 81 1003.8
20260505090748 20 217 9.7 16.1 0.00 0.00 0.00 81 1003.9
20260505090246 20 234 9.7 14.5 0.00 0.00 0.00 81 1004.1
20260505085743 20 205 4.8 12.9 0.00 0.00 0.00 81 1003.9
20260505085241 20 136 9.7 12.9 0.00 0.00 0.00 81 1003.9
20260505084738 20 227 4.8 20.9 0.00 0.00 0.00 80 1004.2
20260505084238 20 202 9.7 16.1 0.00 0.00 0.00 80 1004.2
20260505083734 21 213 11.3 16.1 0.00 0.00 0.00 80 1004.2
20260505083230 21 187 8.0 19.3 0.00 0.00 0.00 79 1004.2
20260505082726 21 192 9.7 17.7 0.00 0.00 0.00 79 1004.2
20260505082224 21 229 11.3 19.3 0.00 0.00 0.00 79 1004.3
20260505081719 21 167 4.8 17.7 0.00 0.00 0.00 79 1004.1
20260505081217 21 236 6.4 16.1 0.00 0.00 0.00 79 1004.3
20260505080714 21 203 8.0 14.5 0.00 0.00 0.00 78 1004.0
20260505080210 21 217 9.7 16.1 0.00 0.00 0.00 78 1004.1
20260505075706 21 216 12.9 16.1 0.00 0.00 0.00 78 1004.0
20260505075203 21 203 14.5 17.7 0.00 0.00 0.00 77 1004.3
20260505074700 21 206 6.4 14.5 0.00 0.00 0.00 77 1004.1
20260505074157 21 147 1.6 12.9 0.00 0.00 0.00 77 1004.4
20260505073654 21 168 11.3 16.1 0.00 0.00 0.00 76 1004.2
20260505073153 21 188 9.7 19.3 0.00 0.00 0.00 76 1004.4
20260505072648 21 186 6.4 17.7 0.00 0.00 0.00 76 1004.3
20260505072145 21 218 6.4 14.5 0.00 0.00 0.00 76 1004.7
20260505071640 21 211 9.7 19.3 0.00 0.00 0.00 75 1004.5
20260505071138 22 169 4.8 12.9 0.00 0.00 0.00 75 1004.5